Regional Weather Roundup
Issued by NWS

Home | Current Version | Previous Version | Text Only | Print | Product List | Glossary On
Versions: 1 2 3 4 5 6 7 8 9 10 11 12 13 14 15 16 17 18 19 20 21 22 23 24 25 26 27 28 29 30 31 32 33 34 35 36 37 38 39 40 41 42 43 44 45 46 47 48 49 50
000
ASUS43 KDTX 040701
RWRMI
MICHIGAN HOURLY REGIONAL WEATHER ROUNDUP
NATIONAL WEATHER SERVICE DETROIT/PONTIAC MI
300 AM EDT TUE AUG 04 2015

NOTE: "FAIR" INDICATES FEW OR NO CLOUDS BELOW 12,000 FEET WITH NO
SIGNIFICANT WEATHER AND/OR OBSTRUCTION TO VISIBILITY.

MIZ047>049-052>055-059>063-066>070-074>076-081>083-040800-
SOUTHEAST LOWER MICHIGAN

CITY           SKY/WX    TMP DP  RH WIND       PRES   REMARKS
ADRIAN         CLEAR     57  53  86 SW5       29.91R
ALMA           CLOUDY    62  56  80 CALM      29.87S
ANN ARBOR      CLEAR     56  52  86 SW3       29.89S
BAD AXE        CLEAR     57  55  91 CALM      29.86R
CARO           CLOUDY    58  56  92 CALM      29.86S
DETROIT CITY   CLEAR     65  51  60 W6        29.88R
DETROIT        PTCLDY    62  53  72 S7        29.89R
FLINT          CLOUDY    62  54  74 SW3       29.87S
GROSSE ILE     CLEAR     64  54  68 CALM      29.88S
HILLSDALE      CLEAR     58  54  87 CALM      29.91S
HOWELL         CLOUDY    60  54  80 W5        29.88F

CITY           SKY/WX    TMP DP  RH WIND       PRES   REMARKS
JACKSON        CLEAR     56  53  90 W3        29.90S
LAMBERTVILLE   CLEAR     59  54  81 CALM      29.90S
LANSING        PTCLDY    62  53  72 W6        29.88F
LAPEER         FAIR      55  55  99 CALM      29.87S
MASON          CLOUDY    58  52  79 CALM      29.89S
MONROE         CLEAR     56  54  92 CALM      29.89R
MT. CLEMENS    CLEAR     64  54  70 W6        29.85R
PONTIAC        PTCLDY    61  53  75 SW3       29.87S
PORT HURON     PTCLDY    57  55  94 CALM      29.86S
TRI CITIES     PTCLDY    61  54  77 W8        29.86F
MIDLAND        FAIR      56  54  94 CALM      29.85F
TROY           MOCLDY    66  52  61 W5        29.89R
SAGINAW HB     PTCLDY    61  55  82 CALM      29.85F
$$
MIZ043>046-050>051-056>058-064>065-071>073-077>080-040800-
SOUTHWEST LOWER MICHIGAN

CITY           SKY/WX    TMP DP  RH WIND       PRES   REMARKS
BATTLE CREEK     N/A    N/A N/A N/A MISG      29.90S
BENTON HARBOR  CLEAR     59  56  89 CALM      29.89S
BIG RAPIDS     CLEAR     58  56  91 CALM      29.87S
COLDWATER      PTCLDY    57  53  85 SW3       29.90F
FREMONT        CLOUDY    60  59  96 CALM      29.87S
HOLLAND        PTCLDY    60  55  83 CALM      29.89S
GRAND RAPIDS   MOCLDY    64  52  64 CALM      29.88S
IONIA          FAIR      61  54  77 W5        29.87F
KALAMAZOO      CLEAR     61  53  75 SW5       29.89F
LUDINGTON      CLEAR     58  56  93 CALM      29.87S FOG
MARSHALL       CLEAR     58  53  83 CALM      29.89F
MOUNT PLEASANT PTCLDY    60  54  80 SW6       29.86S
MUSKEGON       PTCLDY    66  59  78 W5        29.87F
SOUTH HAVEN    CLEAR     59  57  92 CALM      29.89S
$$
MIZ016>042-040800-
NORTHERN LOWER MICHIGAN

CITY           SKY/WX    TMP DP  RH WIND       PRES   REMARKS
ALPENA         CLEAR     52  50  93 CALM      29.84R
BEAVER ISLAND  FOG       59  57  92 SW5       29.81F VSB 1/4
BELLAIRE       MOCLDY    56  55  96 CALM      29.84S
CADILLAC       PTCLDY    51  50  96 CALM      29.86S
CHARLEVOIX     MOCLDY    60  57  89 SW5       29.85F
FRANKFORT      PTCLDY    55  54  96 CALM      29.85S
GAYLORD        CLEAR     54  54 100 CALM      29.84F
GRAYLING       CLEAR     49  48  97 CALM      29.86F FOG
HARBOR SPRINGS FAIR      59  57  91 CALM      29.82F
HOUGHTON LAKE  CLEAR     51  50  96 E3        29.86F
MANISTEE       CLEAR     55  52  88 CALM      29.86S
OSCODA         CLEAR     55  53  94 W3        29.84S
PELLSTON       PTCLDY    50  49  96 CALM      29.82F
ROGERS CITY    CLEAR     56  55  97 SW5       29.83S
TRAVERSE CITY  MOCLDY    57  54  89 CALM      29.83S
$$
MIZ007>008-015-040800-
EASTERN UPPER MICHIGAN

CITY           SKY/WX    TMP DP  RH WIND       PRES   REMARKS
KINROSS        MOCLDY    54  52  94 W5        29.80S
MACKINAC ISLAN MOCLDY    61  54  77 NW5       29.80F
NEWBERRY       CLOUDY    57  55  95 CALM      29.80F
S. S. MARIE    MOCLDY    58  54  86 W7        29.79S
MUNISING         N/A     62  55  77 VRB7      29.81S
$$
MIZ004>006-011>014-085-040800-
CENTRAL UPPER MICHIGAN

CITY           SKY/WX    TMP DP  RH WIND       PRES   REMARKS
ESCANABA       CLOUDY    59  55  88 W5        29.82F
MENOMINEE      CLOUDY    61  54  77 W3        29.85R
SAWYER-GWINN   PTCLDY    57  53  86 W5        29.83S
$$
MIZ001>003-009>011-084-040800-
WESTERN UPPER MICHIGAN

CITY           SKY/WX    TMP DP  RH WIND       PRES   REMARKS
IRON MOUNTAIN  CLOUDY    58  55  90 NW7       29.84F
HOUGHTON       CLOUDY    56  54  93 NW7       29.83S
COPPER HARBOR    N/A     60  56  86 N8        29.82R
IRONWOOD       PTCLDY    57  57 100 SW6       29.86S
$$

ABBREVIATIONS USED IN REMARKS
   TC - TEMPERATURE IN CELSIUS
  WCI - WIND CHILL INDEX
   HX - HEAT INDEX
  VSB - VISIBILITY



USA.gov is the U.S. government's official web portal to all federal, state and local government web resources and services.